Theta_e
341 340 338 340 340 336 336 334 331 333 335 337 337 336 334 334 334 336 335 336 334 333 334 333 332 331 330 329 325 320 318 320 321 320 320 320 320 319 320 323 325 331 334
342 340 340 342 342 340 338 337 335 336 335 334 333 332 331 333 334 334 334 335 335 333 332 331 330 329 331 330 327 322 320 320 322 321 321 320 320 319 320 322 324 326 335
344 344 342 343 343 338 336 337 336 336 335 334 332 332 334 334 332 331 332 333 334 332 332 331 330 331 331 330 329 327 323 322 323 322 321 321 320 319 320 321 322 324 327
345 344 342 342 336 335 336 337 336 335 336 335 334 335 336 333 332 333 334 334 334 331 329 328 329 332 332 330 329 328 327 325 325 322 321 320 319 319 321 321 322 322 324
345 345 343 338 337 336 336 335 335 335 336 336 335 335 335 333 332 334 333 330 328 327 327 328 328 327 327 329 329 327 327 326 324 323 321 320 319 320 320 321 321 322 323
343 344 343 340 339 337 336 336 336 335 337 336 335 335 335 332 332 333 331 330 328 326 325 325 326 326 326 327 327 327 326 326 324 323 321 321 320 320 321 321 321 321 323
343 342 341 340 338 337 337 337 337 336 336 337 336 336 332 333 332 332 332 329 327 326 326 326 326 325 326 327 326 326 325 324 323 321 321 320 320 321 320 321 321 321 321
341 341 340 340 339 338 338 338 337 337 337 338 338 335 334 333 332 333 331 329 327 325 324 324 321 325 325 326 325 324 322 321 320 318 318 318 319 318 319 320 321 321 321
340 340 340 340 340 339 338 337 337 337 338 339 337 335 334 333 328 332 330 327 324 324 321 324 322 322 324 323 322 321 320 319 319 317 317 318 318 317 318 320 322 321 321
339 339 339 339 339 338 337 337 337 338 338 338 336 335 330 329 331 329 328 323 324 323 323 321 320 323 322 321 319 318 318 318 319 318 317 318 318 317 318 319 320 322 322
340 339 338 340 339 338 338 338 339 338 338 334 331 328 329 330 329 328 325 324 324 322 321 320 321 322 320 318 318 316 315 315 317 317 316 317 318 318 318 318 320 322 323
338 338 335 333 337 341 339 340 338 337 334 331 330 325 328 329 326 325 325 324 322 321 319 320 320 319 317 316 315 315 314 314 314 314 314 315 317 317 317 317 320 323 323
334 330 327 326 327 327 337 339 336 331 329 328 328 329 328 325 324 323 322 321 318 318 318 318 318 316 315 313 313 312 311 312 312 311 312 313 315 316 316 318 320 321 324
329 328 328 327 327 331 336 336 332 331 329 327 327 326 324 321 321 320 318 317 317 316 316 317 316 314 313 311 311 309 309 309 310 310 311 312 314 316 315 317 320 320 326
330 329 328 327 328 334 333 332 331 327 323 324 323 322 323 321 319 317 317 316 315 314 317 319 315 312 311 309 308 307 307 308 308 309 310 310 312 313 314 316 319 320 321
326 326 327 327 331 332 328 322 320 320 320 320 319 319 317 316 315 314 313 313 314 314 312 311 310 309 308 306 304 305 304 305 305 307 309 309 310 310 312 315 316 318 320
329 330 331 331 332 326 322 322 318 318 319 318 316 315 313 312 311 313 315 314 314 312 310 308 306 304 303 302 302 301 301 303 304 304 306 306 308 309 311 312 313 315 317
330 332 330 328 328 323 322 322 322 319 316 314 313 312 312 311 311 311 311 311 309 308 306 304 301 300 300 300 300 299 300 302 302 302 302 303 305 308 308 309 310 311 313
330 329 328 328 328 327 327 326 323 320 318 316 314 313 312 312 311 309 310 309 307 304 302 301 300 300 299 297 297 297 299 300 299 299 299 300 302 303 306 307 308 309 311
326 326 329 329 328 326 323 324 323 320 319 316 314 313 311 311 309 308 307 307 306 305 304 303 301 300 299 297 295 295 298 298 297 298 298 299 299 300 302 304 306 307 308
327 324 324 326 324 323 321 320 319 318 316 314 313 311 310 309 309 307 307 306 306 305 304 303 300 299 297 294 290 291 296 296 297 297 297 298 299 299 300 301 304 306 308
326 323 325 325 324 322 322 320 318 317 316 314 312 308 308 308 307 307 306 306 305 304 301 300 297 295 294 292 292 294 295 295 296 297 296 297 298 299 299 300 301 303 305
324 324 325 323 322 321 320 319 319 318 316 313 311 308 307 306 305 305 306 304 301 299 298 297 296 294 293 290 292 294 294 295 295 296 296 296 297 298 299 299 299 300 301
323 322 321 320 320 319 319 318 314 315 315 314 312 309 307 306 305 304 305 301 298 298 297 296 295 292 289 288 290 293 294 295 295 295 295 295 296 297 298 298 298 299 299
316 316 315 316 316 316 315 315 313 314 313 311 312 311 308 307 305 303 303 300 298 296 296 295 295 294 290 289 289 290 293 294 295 294 294 295 295 295 297 297 297 297 298
310 311 313 315 315 314 314 313 312 311 310 310 308 308 307 307 305 302 301 298 297 296 296 295 295 294 293 292 292 289 290 293 295 294 293 294 293 294 295 296 296 296 296
Wind_Speed
39 34 30 25 21 20 16 12 11 11 10 9 10 10 10 9 9 11 12 12 13 12 13 13 14 14 14 13 11 9 8 9 8 16 20 32 37 36 37 35 30 32 35
40 37 34 26 24 25 21 15 12 13 12 11 11 12 11 11 12 11 12 12 13 14 14 13 16 17 18 18 16 16 15 15 16 18 23 27 34 39 30 33 33 31 31
39 38 35 28 28 27 23 19 17 15 15 14 13 13 13 14 12 10 11 13 15 15 16 16 16 18 22 23 22 21 21 21 23 20 23 27 33 37 32 30 33 35 31
41 41 39 32 32 27 23 23 21 20 19 18 17 16 15 14 14 14 17 17 16 14 15 16 18 20 24 24 24 25 24 26 27 22 21 25 27 30 27 27 31 30 31
42 40 40 37 32 26 26 26 25 24 22 20 18 17 16 15 15 16 15 10 11 13 14 16 17 19 20 22 22 26 26 27 25 18 21 23 24 26 27 30 29 32 35
37 40 39 36 30 30 28 27 26 25 23 21 19 19 18 17 16 14 13 12 12 13 15 19 18 16 17 18 22 24 26 25 26 21 21 21 28 27 32 32 30 27 13
45 41 39 36 33 35 32 29 28 28 25 26 23 21 20 17 16 17 15 15 14 16 19 21 17 18 17 19 18 17 19 20 19 17 20 26 27 31 35 37 34 28 29
34 37 40 38 40 39 35 33 29 28 28 27 25 23 19 17 16 15 16 17 15 15 14 14 15 17 16 15 15 15 17 17 16 18 23 27 33 37 38 42 44 41 37
35 42 40 41 40 38 37 34 32 30 30 27 25 22 14 17 17 16 14 12 13 12 11 11 10 13 11 8 10 14 18 21 17 20 26 29 34 40 42 45 34 28 16
36 44 40 40 37 37 40 36 32 30 28 23 18 12 15 17 15 12 12 13 10 12 12 9 10 7 5 7 11 15 18 19 23 27 32 34 38 42 43 39 34 28 20
36 36 31 28 40 44 37 30 27 24 16 5 3 14 14 12 12 7 9 11 11 11 11 14 9 6 5 8 13 15 16 21 23 24 27 32 35 40 44 39 32 23 23
13 7 11 14 18 23 28 23 19 12 9 4 12 18 12 6 6 6 10 7 6 9 9 8 6 4 3 8 14 14 15 17 18 20 21 25 30 37 47 45 38 19 30
23 18 24 19 26 39 24 15 13 11 5 10 12 12 7 6 5 8 5 5 8 9 8 11 10 1 4 10 13 14 15 16 18 19 20 24 30 38 49 40 34 31 24
21 17 16 15 4 30 20 14 13 10 11 5 6 8 10 8 7 5 5 6 6 6 8 8 6 3 5 10 12 13 14 15 16 18 20 25 28 35 39 41 31 33 6
16 19 24 22 29 28 15 13 14 13 8 9 8 8 10 8 6 5 6 6 4 5 6 8 10 2 9 11 12 14 15 16 18 19 20 22 26 30 31 38 35 24 19
20 17 20 28 24 24 18 12 10 9 8 6 5 3 5 4 3 4 6 6 4 4 8 6 4 4 7 10 13 14 15 17 19 21 21 21 23 24 28 33 32 31 22
19 13 14 20 25 24 20 21 17 10 9 9 8 7 5 4 3 7 9 6 7 10 7 4 3 4 6 7 10 13 17 18 20 20 21 22 22 23 26 27 28 27 27
3 9 9 17 23 23 20 17 14 16 15 12 10 8 5 2 3 3 4 10 10 6 4 4 5 5 7 8 10 13 15 17 19 19 19 21 23 21 26 23 25 24 24
3 1 4 10 15 18 17 17 15 14 15 13 12 9 6 4 2 1 1 4 5 6 7 6 6 6 7 8 9 10 12 14 16 19 21 23 24 25 22 22 21 25 22
4 4 8 16 18 18 19 21 21 20 19 17 13 10 8 7 7 4 3 5 5 6 5 4 3 3 4 7 10 8 8 12 15 18 21 22 24 25 22 22 23 21 22
16 12 13 17 20 20 18 18 20 19 16 14 11 8 7 8 8 6 4 4 5 5 4 3 3 2 1 8 9 7 6 11 15 18 20 21 23 23 25 24 21 21 22
11 11 12 13 15 15 12 11 12 14 16 18 14 12 11 9 8 9 6 5 4 10 6 3 2 2 4 7 8 9 9 12 15 17 19 21 22 23 24 25 25 23 22
10 10 13 15 14 12 12 11 12 16 20 19 16 16 15 12 8 9 9 3 12 11 6 1 2 1 3 4 7 9 11 13 13 14 17 19 20 22 23 26 25 23 23
12 12 9 8 11 12 11 12 9 11 20 21 18 19 18 15 11 8 11 10 11 9 6 3 4 4 4 4 5 6 9 12 12 12 13 15 17 19 21 23 25 25 24
6 9 9 10 10 11 12 11 9 9 12 15 18 20 20 18 15 12 14 14 10 9 7 4 2 4 5 5 5 4 5 7 9 10 10 12 15 16 19 20 22 24 26
6 5 7 10 13 16 16 13 9 12 13 15 16 21 21 22 20 17 16 13 11 11 10 6 3 3 4 6 8 6 2 3 5 8 10 10 13 15 17 18 20 22 23
Wind_Direction
195 192 196 201 200 199 207 206 207 212 227 235 244 248 259 264 272 282 285 275 273 279 263 253 268 261 264 264 263 257 269 278 269 294 299 324 324 322 322 318 313 293 283
194 193 201 205 205 202 205 208 215 224 233 248 247 249 254 263 274 277 279 280 278 272 270 269 262 257 254 260 259 258 266 274 266 279 300 311 316 321 318 317 312 306 281
196 195 201 204 207 204 204 214 218 226 238 242 242 246 258 266 276 277 275 277 270 273 277 271 271 259 255 257 260 261 266 276 280 274 288 301 310 316 310 314 311 310 302
196 198 201 198 200 202 205 209 218 228 235 237 240 248 254 271 279 278 274 273 269 271 274 274 275 267 262 266 262 264 272 276 288 284 287 292 298 306 304 305 303 303 299
191 197 199 200 203 206 207 216 223 226 234 239 245 252 261 267 277 280 269 255 260 270 281 283 284 285 278 278 276 275 273 276 283 280 287 288 295 306 303 307 295 292 290
188 196 198 206 205 208 209 217 221 227 233 242 247 257 262 269 277 271 248 254 262 268 278 286 287 290 287 278 279 282 275 279 281 272 280 282 292 293 303 296 290 288 286
190 194 200 206 209 213 215 217 223 229 233 241 244 246 257 264 273 274 259 261 269 285 293 301 297 299 298 293 292 285 282 286 284 293 287 288 290 294 298 291 285 270 266
189 198 201 201 216 218 216 220 227 232 237 244 247 251 252 265 279 279 282 265 275 296 306 307 306 310 304 295 295 297 297 294 294 300 310 304 302 301 297 288 286 276 265
189 202 203 207 213 215 219 224 229 234 240 242 248 258 267 285 290 286 273 262 277 292 292 313 314 315 308 311 311 310 304 300 291 307 315 314 318 318 313 296 285 274 252
191 206 206 213 218 218 224 226 230 236 245 251 249 267 299 295 287 286 269 254 265 289 306 315 325 328 303 312 318 317 309 305 306 312 317 325 326 321 316 303 286 279 224
201 201 211 219 221 224 226 228 229 238 235 161 299 279 288 293 282 267 245 256 273 285 306 312 318 323 321 325 330 333 323 316 314 311 320 326 319 323 322 312 307 274 218
154 125 67 16 338 268 229 231 246 217 172 216 231 252 276 254 211 230 257 259 269 296 309 318 335 330 346 349 348 345 338 342 340 331 324 320 322 323 324 324 330 308 223
125 104 73 43 360 329 312 259 180 172 202 231 242 274 234 204 199 208 225 262 287 298 308 302 298 205 14 355 352 350 354 353 347 336 327 325 324 330 333 331 344 357 231
119 92 104 110 148 265 255 197 181 201 212 209 190 166 173 178 197 215 243 266 287 307 309 281 174 143 355 351 350 354 1 1 348 343 333 331 337 342 335 339 349 359 11
166 180 176 185 194 218 203 199 213 212 192 163 163 173 182 195 217 256 272 284 296 345 74 130 150 358 359 356 357 4 9 10 4 5 343 343 352 345 335 346 353 2 14
176 191 187 189 214 200 193 170 160 138 126 132 141 153 170 205 237 286 286 278 253 159 128 110 83 16 13 358 0 4 12 11 11 4 353 351 354 342 343 349 354 0 8
192 230 233 205 189 185 179 165 148 136 129 121 125 141 129 117 42 356 303 237 183 160 135 106 67 13 1 6 10 6 357 3 4 4 360 359 356 352 5 352 353 0 5
313 245 158 187 184 178 168 166 170 162 154 150 144 144 138 118 81 79 105 134 127 113 105 102 84 60 40 28 22 13 6 8 10 11 4 4 10 358 6 356 357 0 1
114 16 214 190 170 168 173 179 171 167 166 164 167 170 175 198 172 35 203 180 142 118 110 105 84 61 41 25 12 9 14 17 19 21 18 17 15 16 4 3 4 5 13
43 38 180 171 161 167 163 158 160 164 172 169 171 169 173 170 186 167 144 131 135 124 115 90 78 52 19 1 357 358 16 27 27 28 23 21 22 25 18 8 15 7 3
217 194 194 182 171 169 167 164 161 168 177 182 178 181 187 185 182 187 181 177 161 156 140 148 109 129 25 350 359 18 45 38 37 35 30 28 26 24 26 30 23 23 21
189 167 168 177 174 169 174 180 185 183 187 187 185 177 170 182 192 193 189 196 170 154 155 165 136 92 20 15 35 62 61 44 38 36 34 34 35 37 33 35 33 27 28
183 177 167 176 188 184 187 193 201 207 202 199 192 185 184 185 186 195 187 150 162 156 155 98 5 8 22 47 58 61 56 43 37 36 36 37 41 40 42 38 40 37 35
169 165 162 164 178 183 188 196 216 235 209 209 206 203 194 193 191 184 179 165 162 163 159 116 60 49 63 61 68 65 55 47 46 38 39 41 45 47 50 50 48 48 50
172 177 173 185 199 216 226 225 234 208 188 191 209 210 201 194 193 188 175 171 179 175 175 159 88 67 71 61 49 44 52 46 45 40 43 42 48 52 53 58 57 58 56
59 58 241 223 225 233 232 228 223 205 225 208 196 193 196 192 189 185 186 182 183 192 191 192 171 121 103 67 42 27 3 19 36 49 46 47 50 56 60 66 63 61 62